Probability
4 5 6 6 7 6 4 4 3 3 1 0 0 0 0 0 0 0 0 0 0 0 0 0 0 0 0 0 0 0 0 0 0 0 0 0 0 0 0 0 0 0 0
5 7 9 10 11 10 7 5 4 3 3 2 1 1 1 0 0 0 0 0 0 0 0 0 0 0 0 0 0 0 0 0 0 0 0 0 0 0 0 0 0 0 0
8 11 14 18 19 16 11 7 5 5 5 5 3 3 2 1 1 0 0 0 0 0 0 0 0 0 0 0 0 0 0 0 0 0 0 0 0 0 0 0 0 0 0
16 19 22 24 25 20 14 10 8 7 6 6 5 4 3 3 2 1 0 0 0 0 0 0 0 0 0 0 0 1 1 0 0 0 0 0 0 0 0 0 0 0 0
26 27 28 30 29 24 17 13 11 9 7 5 4 3 3 3 2 1 0 0 0 0 0 1 1 1 0 0 0 1 1 0 0 0 0 0 0 0 0 0 1 1 1
32 31 31 32 32 27 20 15 14 11 7 5 4 3 3 3 1 1 0 0 0 1 2 3 2 1 0 0 0 1 1 0 0 0 0 0 0 0 0 0 1 2 2
35 31 29 30 30 27 20 16 16 14 11 9 7 6 5 3 1 0 0 0 1 2 5 6 4 2 0 0 0 0 0 0 0 0 0 0 0 0 0 0 0 1 2
37 33 28 26 27 25 20 16 17 17 17 16 13 12 11 7 2 0 0 0 1 3 6 8 7 4 1 0 0 0 0 0 0 0 0 0 0 0 1 0 0 0 1
37 33 27 23 23 23 20 17 18 20 21 19 18 18 19 13 4 0 0 0 1 3 6 7 6 4 1 0 0 0 0 0 0 0 0 0 0 0 0 0 0 0 0
29 27 23 19 19 20 20 20 20 21 20 18 17 20 22 17 6 0 0 0 1 3 6 5 3 1 0 0 0 1 0 0 1 0 0 1 1 1 1 0 0 0 0
19 18 18 16 14 14 18 20 20 19 18 17 19 22 23 17 8 1 0 0 1 2 4 3 1 0 0 0 0 0 0 0 0 0 1 3 3 3 2 1 1 0 0
14 14 15 14 10 8 12 17 18 16 15 16 20 22 22 17 7 2 0 0 0 1 2 2 1 0 0 0 0 0 0 0 0 0 1 2 4 5 6 6 4 2 0
15 14 15 14 11 9 10 12 14 13 11 12 14 14 14 11 6 2 1 0 0 0 1 1 0 0 0 0 0 0 0 0 0 1 2 3 5 8 10 10 7 3 1
15 15 16 17 16 13 12 10 10 10 8 7 6 4 4 4 3 3 2 1 0 0 0 0 0 0 0 0 0 0 0 1 1 2 3 4 7 10 11 10 7 4 3
13 14 15 15 15 13 11 8 6 6 5 4 2 1 1 1 1 1 1 1 1 0 0 0 0 0 0 0 0 0 2 3 4 4 4 5 6 7 8 8 7 5 4
9 10 10 11 10 9 8 7 5 2 2 1 0 0 0 0 0 0 0 0 0 0 0 0 0 0 0 0 0 1 3 5 6 6 7 5 4 3 3 4 5 4 3
5 6 6 6 6 5 6 6 4 1 0 0 0 0 0 0 0 0 0 0 0 0 0 0 0 0 0 0 1 3 4 5 6 6 6 4 2 0 0 1 1 1 1
2 2 3 4 4 4 4 4 4 2 1 0 0 0 0 0 0 0 0 0 0 0 0 0 0 0 0 0 1 3 3 3 3 3 3 2 1 0 0 0 0 0 0
1 1 2 3 3 3 3 3 3 3 2 1 1 0 0 0 0 0 0 0 0 0 0 0 0 0 0 0 1 1 2 2 1 1 2 2 1 0 0 0 0 0 0
2 1 1 1 1 2 3 3 3 3 3 3 2 1 0 0 0 0 0 0 0 0 0 0 0 0 0 0 0 0 1 1 0 1 2 2 1 0 0 0 0 0 0
2 1 0 0 1 2 3 3 3 3 3 3 2 1 0 0 0 0 0 0 0 0 0 0 0 0 0 0 0 0 0 0 0 1 1 1 1 0 0 0 0 0 0
1 0 0 0 1 2 2 3 3 3 3 3 2 1 0 0 0 0 0 0 0 0 0 0 0 0 0 0 0 0 0 0 0 0 0 0 0 0 0 0 0 0 0
0 0 0 0 1 1 1 1 2 2 2 2 1 0 0 0 0 0 0 0 0 0 0 0 0 0 0 0 0 0 0 0 0 0 0 0 0 0 0 0 0 0 0
0 0 0 0 0 0 0 0 1 1 1 1 0 0 0 0 0 0 0 0 0 0 0 0 0 0 0 0 0 0 0 0 0 0 0 0 0 0 0 0 0 0 0
0 0 0 0 0 0 0 0 0 0 0 0 0 0 0 0 0 0 0 0 0 0 0 0 0 0 0 0 0 0 0 0 0 0 0 0 0 0 0 0 0 0 0
0 0 0 0 0 0 0 0 0 0 0 0 0 0 0 0 0 0 0 0 0 0 0 0 0 0 0 0 0 0 0 0 0 0 0 0 0 0 0 0 0 0 0
Wind_Speed
12 11 9 9 8 8 7 7 6 6 6 6 6 5 5 5 5 5 5 4 6 5 5 5 6 6 6 6 5 6 6 7 9 8 7 6 6 9 8 8 9 9 9
12 11 11 10 9 9 8 8 7 7 7 7 6 6 6 6 6 6 6 6 6 6 6 6 7 6 6 7 6 7 7 7 9 10 9 8 8 8 8 9 10 9 9
13 13 12 11 11 10 9 8 8 7 7 7 7 7 7 6 6 7 7 7 7 7 7 7 8 7 8 7 7 8 7 7 7 9 10 7 8 8 8 9 11 8 11
13 13 12 12 11 11 10 9 9 9 8 8 8 8 8 8 8 7 7 7 8 8 8 8 9 9 9 9 8 9 8 9 8 9 9 8 8 8 7 9 9 8 8
13 13 13 12 11 11 10 10 10 9 9 9 8 8 9 8 8 8 7 8 8 9 9 9 10 8 7 8 9 9 8 8 9 9 9 9 8 7 7 8 9 8 8
13 13 12 12 11 11 11 11 10 10 9 9 9 9 10 8 5 6 8 9 8 9 10 10 10 10 12 14 14 14 12 12 12 10 10 10 10 9 8 8 9 9 9
13 12 12 11 11 11 11 11 10 10 9 9 10 10 10 9 7 10 11 10 11 10 10 10 10 9 8 11 13 17 17 18 17 14 14 13 12 10 10 11 10 11 11
12 11 11 11 11 11 10 10 10 9 9 9 10 10 10 9 10 12 11 12 12 12 12 12 12 12 11 10 12 12 13 13 14 15 14 14 13 11 10 11 12 12 13
11 10 10 11 10 10 10 10 9 8 9 9 9 10 10 10 10 12 11 10 11 13 13 13 13 14 11 9 12 13 14 13 13 15 15 14 12 11 10 10 12 12 12
9 8 8 8 9 9 9 8 7 7 8 9 9 9 10 10 8 10 11 9 11 11 11 12 13 15 12 11 12 13 14 13 13 11 12 15 16 16 16 15 13 13 12
6 6 6 7 7 7 6 6 6 6 6 7 7 8 9 10 9 10 12 9 10 11 11 10 10 11 14 14 14 14 14 12 12 13 12 12 12 11 12 13 13 12 13
4 5 5 5 5 5 5 5 5 5 6 7 7 8 8 8 9 8 11 13 12 11 12 12 10 6 10 12 13 14 13 11 11 12 12 12 11 11 10 10 12 13 13
4 4 4 4 3 3 4 5 5 5 6 6 6 7 7 6 6 9 11 13 14 11 12 13 12 9 9 11 16 16 13 11 12 12 13 12 11 10 9 8 10 12 14
4 3 3 3 3 2 1 2 3 3 4 5 6 6 7 7 7 6 5 6 9 11 12 12 13 15 14 14 12 12 12 12 12 12 12 11 10 9 9 10 10 10 11
4 3 2 2 2 1 1 1 3 2 3 5 6 6 7 8 6 7 8 9 9 9 10 10 11 11 11 11 11 11 11 11 12 12 12 11 10 10 10 9 9 10 11
3 2 1 1 1 0 1 2 2 4 3 6 7 8 7 8 10 11 12 12 12 10 9 12 12 12 12 12 11 10 10 10 10 10 11 11 10 10 9 9 9 10 11
2 2 1 1 1 2 2 3 4 4 7 9 10 11 11 11 12 13 14 13 13 9 10 12 12 12 11 11 11 11 11 10 9 10 10 10 10 9 9 9 10 10 11
1 2 1 1 2 3 3 4 5 6 6 6 7 9 11 12 13 14 13 10 10 9 10 11 11 11 11 11 11 11 10 10 9 9 10 10 10 10 10 10 10 12 11
2 2 2 3 4 4 4 5 6 7 7 8 8 7 7 9 12 13 10 9 11 10 10 10 11 11 11 10 10 10 10 10 10 9 9 10 10 10 10 11 11 12 12
1 1 3 4 5 5 5 6 6 7 8 8 9 9 9 10 10 10 9 9 10 10 10 11 10 11 11 10 10 9 10 10 11 10 10 10 10 10 11 13 11 11 11
4 2 5 6 6 6 6 7 8 8 9 9 9 9 8 11 12 12 11 11 11 11 11 11 10 10 10 9 10 10 12 10 10 10 10 9 10 10 10 10 11 11 11
6 6 6 6 6 6 7 8 9 9 10 11 10 10 8 10 11 11 11 11 11 10 10 10 10 9 9 9 9 9 10 10 10 10 10 9 9 10 10 10 11 11 10
7 8 7 7 7 7 8 9 9 9 10 11 11 11 10 10 11 11 12 12 11 11 10 10 10 10 10 9 10 10 10 10 9 9 9 9 9 9 9 10 12 12 11
8 8 8 8 8 9 9 9 9 10 10 11 11 11 11 11 11 12 12 11 11 11 10 10 10 13 15 12 10 10 9 8 9 9 11 10 10 10 9 10 11 13 12
8 8 8 8 8 9 9 10 10 10 10 10 10 11 11 11 11 11 10 10 12 11 13 12 10 11 14 15 13 10 6 5 7 9 9 9 11 11 11 12 11 11 11
9 9 8 8 8 8 9 9 10 11 10 10 10 10 11 11 11 11 10 10 10 11 12 11 12 13 14 12 11 8 4 5 6 7 8 9 11 11 11 10 12 11 11
Wind_Direction
190 190 187 188 188 191 197 194 191 196 193 204 208 211 214 216 217 226 249 239 243 250 251 249 255 276 280 282 273 272 273 276 281 287 289 289 283 281 292 289 280 274 261
190 189 190 191 191 196 196 195 193 195 201 204 211 217 222 222 223 230 242 244 246 251 256 260 261 258 257 269 278 278 278 281 278 285 288 284 278 276 274 277 277 274 277
190 192 192 193 194 200 200 196 197 200 206 209 212 221 226 229 230 234 242 247 250 254 257 259 261 262 261 265 268 273 275 270 270 277 280 284 280 276 280 273 271 269 273
192 194 195 197 198 200 199 199 202 205 210 214 217 223 228 232 234 237 239 245 252 256 257 259 260 259 259 263 262 262 267 275 272 270 275 278 276 272 270 274 274 262 263
194 197 198 198 199 200 200 202 204 209 215 216 222 226 230 233 234 235 243 245 249 255 255 254 255 255 267 266 273 275 272 269 274 275 276 277 277 282 279 284 284 286 272
197 201 199 198 198 202 202 204 206 211 219 221 227 233 236 239 196 208 244 258 255 255 258 259 258 237 234 230 243 256 265 268 272 278 279 280 281 282 282 282 283 282 281
198 202 198 198 201 205 207 207 209 212 217 225 231 235 241 240 203 208 222 250 257 258 259 261 263 263 245 250 235 227 238 242 247 262 273 277 281 280 284 280 275 279 283
195 199 199 202 204 205 209 212 214 218 221 227 234 239 244 241 209 213 217 238 254 257 256 256 258 265 261 257 263 258 253 243 232 233 249 261 266 275 273 272 278 274 267
193 198 199 202 205 204 209 213 215 218 225 231 234 239 244 247 219 214 217 247 251 255 256 257 257 259 252 231 251 260 262 262 249 235 243 254 266 271 269 271 268 268 269
191 195 196 198 205 208 211 214 216 219 228 238 241 243 249 255 237 213 212 250 259 262 260 257 247 244 250 220 241 254 258 261 268 260 236 240 247 246 233 240 255 262 267
181 181 186 191 201 210 213 217 224 227 238 247 253 253 254 256 249 221 212 245 265 269 270 268 265 219 223 224 232 250 257 268 271 269 263 254 246 243 237 228 234 248 260
156 160 171 178 195 193 199 210 220 230 235 244 251 258 259 254 250 240 219 228 253 268 271 273 274 226 220 226 231 244 249 255 260 262 261 259 256 252 247 244 240 242 250
133 140 149 158 172 184 198 207 215 221 243 254 259 265 270 272 259 237 234 234 237 249 267 274 281 260 244 240 237 237 236 240 247 252 256 259 259 259 260 255 251 248 251
114 116 130 141 143 140 225 234 246 252 261 271 274 278 282 282 282 286 281 264 248 247 259 264 250 244 243 255 255 229 229 239 246 254 259 262 262 257 250 250 252 250 249
112 120 125 119 105 133 206 289 279 303 315 290 290 292 294 292 313 337 312 299 299 304 305 282 270 260 251 246 244 242 241 239 237 246 255 258 257 254 252 250 251 254 254
108 102 102 103 104 261 271 260 229 254 252 247 254 271 287 287 299 299 291 284 279 277 274 267 267 266 264 263 260 255 248 248 249 250 252 255 258 258 257 252 249 249 253
83 61 18 12 357 322 309 299 296 264 240 241 241 241 249 271 279 280 279 279 272 251 249 260 265 267 267 266 265 263 260 256 252 251 252 252 253 254 255 255 253 250 251
85 100 335 342 328 316 312 302 297 299 299 291 257 236 240 251 261 267 269 274 270 244 255 266 270 271 270 269 268 266 264 262 252 249 249 248 247 249 251 250 250 250 250
347 5 354 331 308 305 305 299 299 301 300 300 301 286 253 258 258 260 255 267 280 281 277 274 274 275 275 274 272 268 265 263 259 254 251 250 248 247 247 249 250 249 250
249 198 276 297 297 300 303 303 303 302 297 297 299 303 309 306 299 295 285 285 284 283 282 280 279 278 278 275 271 267 265 263 260 254 251 250 248 247 248 249 251 250 247
301 271 230 268 289 300 304 304 302 298 297 299 301 308 313 300 295 295 294 291 288 287 286 284 281 279 275 271 269 268 268 268 265 261 256 252 252 250 249 251 252 250 250
293 293 293 297 301 302 308 301 298 299 301 302 305 304 292 289 296 298 299 298 296 292 290 288 283 281 277 273 269 268 268 268 269 264 257 255 254 254 252 252 253 253 250
288 296 297 296 296 296 287 292 299 302 304 307 307 307 307 307 306 304 302 301 300 297 295 292 289 287 283 278 273 270 269 270 272 274 270 265 260 256 255 254 254 255 252
293 294 296 299 298 297 297 299 299 301 304 305 305 304 305 306 305 305 303 303 302 299 298 297 294 292 291 287 278 272 271 277 280 275 272 269 267 263 260 257 256 255 254
293 298 299 298 299 300 302 302 301 301 302 302 302 303 305 306 305 303 302 303 304 303 302 299 294 293 292 290 286 285 293 292 282 285 279 272 268 267 263 260 257 256 253
296 298 298 299 301 304 305 304 303 303 301 301 302 304 304 304 304 304 305 306 307 307 305 300 297 299 297 294 301 311 301 282 272 269 273 269 264 261 261 261 261 258 257